• In Netherlands
  • List of Countries
  • For 7 days
  • Water Temperature
  • Satellite Maps
  • Weather Map
  • Weather Widgets
  • user-avatar
    Login

    Hourly Weather Buenos Aires

    Today, 20 September, Wednesday

    Time Temperature Precipitation Wind Pressure Humidity
    00:00 +19°C° 0 mm 5 mps 759 mmHg 90%
    01:00 +19°C° 0 mm 4 mps 759 mmHg 91%
    02:00 +19°C° 0 mm 3 mps 759 mmHg 93%
    03:00 +18°C° 0 mm 3 mps 759 mmHg 93%
    04:00 +18°C° 0 mm 3 mps 758 mmHg 94%
    05:00 +18°C° 0 mm 3 mps 758 mmHg 95%
    06:00 +19°C° 0 mm 3 mps 759 mmHg 91%
    07:00 +20°C° 0 mm 3 mps 759 mmHg 87%
    08:00 +21°C° 0 mm 3 mps 759 mmHg 83%
    09:00 +21°C° 0 mm 3 mps 759 mmHg 81%
    10:00 +23°C° 0 mm 2 mps 759 mmHg 79%
    11:00 +24°C° 0 mm 2 mps 759 mmHg 77%
    12:00 +24°C° 0 mm 2 mps 759 mmHg 76%
    13:00 +24°C° 0 mm 2 mps 759 mmHg 75%
    14:00 +25°C° 0 mm 2 mps 759 mmHg 74%
    15:00 +24°C° 0 mm 3 mps 760 mmHg 77%
    16:00 +21°C° 0 mm 4 mps 760 mmHg 80%
    17:00 +20°C° 0 mm 5 mps 761 mmHg 82%
    18:00 +19°C° 0 mm 5 mps 762 mmHg 77%
    19:00 +17°C° 0 mm 6 mps 763 mmHg 72%
    20:00 +16°C° 0 mm 6 mps 764 mmHg 67%
    21:00 +16°C° 0 mm 6 mps 764 mmHg 69%
    22:00 +16°C° 0 mm 6 mps 764 mmHg 71%
    23:00 +15°C° 0 mm 6 mps 765 mmHg 73%

    Tomorrow, 21 September, Thursday

    Time Temperature Precipitation Wind Pressure Humidity
    00:00 +15°C° 0.6 mm 6 mps 765 mmHg 78%
    01:00 +14°C° 0.6 mm 6 mps 765 mmHg 82%
    02:00 +13°C° 0.6 mm 6 mps 765 mmHg 87%
    03:00 +13°C° 1.4 mm 6 mps 765 mmHg 87%
    04:00 +13°C° 1.4 mm 6 mps 765 mmHg 87%
    05:00 +12°C° 1.4 mm 5 mps 765 mmHg 87%
    06:00 +12°C° 2.1 mm 5 mps 766 mmHg 87%
    07:00 +12°C° 2.1 mm 5 mps 766 mmHg 87%
    08:00 +12°C° 2.1 mm 5 mps 767 mmHg 87%
    09:00 +12°C° 1.2 mm 5 mps 767 mmHg 87%
    10:00 +12°C° 1.2 mm 5 mps 767 mmHg 86%
    11:00 +12°C° 1.2 mm 5 mps 767 mmHg 86%
    12:00 +12°C° 0.8 mm 5 mps 767 mmHg 86%
    13:00 +12°C° 0.8 mm 5 mps 766 mmHg 85%
    14:00 +12°C° 0.8 mm 5 mps 765 mmHg 85%
    15:00 +12°C° 0.6 mm 5 mps 765 mmHg 85%
    16:00 +12°C° 0.6 mm 4 mps 765 mmHg 85%
    17:00 +12°C° 0.6 mm 4 mps 765 mmHg 84%
    18:00 +12°C° 0.5 mm 4 mps 765 mmHg 84%
    19:00 +11°C° 0.5 mm 4 mps 766 mmHg 84%
    20:00 +11°C° 0.5 mm 4 mps 766 mmHg 83%
    21:00 +11°C° 0.2 mm 4 mps 766 mmHg 83%
    22:00 +11°C° 0.2 mm 4 mps 766 mmHg 83%
    23:00 +11°C° 0.2 mm 4 mps 765 mmHg 82%

    Day after tomorrow, 22 September, Friday

    Time Temperature Precipitation Wind Pressure Humidity
    00:00 +11°C° 0.3 mm 4 mps 765 mmHg 82%
    01:00 +11°C° 0.3 mm 4 mps 764 mmHg 83%
    02:00 +11°C° 0.3 mm 4 mps 764 mmHg 83%
    03:00 +11°C° 0.1 mm 4 mps 763 mmHg 83%
    04:00 +11°C° 0.1 mm 4 mps 763 mmHg 83%
    05:00 +10°C° 0.1 mm 4 mps 763 mmHg 84%
    06:00 +11°C° 0 mm 3 mps 763 mmHg 82%
    07:00 +12°C° 0 mm 3 mps 763 mmHg 80%
    08:00 +13°C° 0 mm 3 mps 764 mmHg 78%
    09:00 +14°C° 0 mm 3 mps 763 mmHg 74%
    10:00 +17°C° 0 mm 3 mps 763 mmHg 71%
    11:00 +18°C° 0 mm 3 mps 763 mmHg 67%
    12:00 +18°C° 0 mm 3 mps 763 mmHg 67%
    13:00 +19°C° 0 mm 3 mps 762 mmHg 67%
    14:00 +19°C° 0 mm 3 mps 762 mmHg 66%
    15:00 +18°C° 0 mm 3 mps 762 mmHg 69%
    16:00 +18°C° 0 mm 2 mps 761 mmHg 71%
    17:00 +18°C° 0 mm 2 mps 761 mmHg 73%
    18:00 +17°C° 0 mm 2 mps 762 mmHg 75%
    19:00 +16°C° 0 mm 1 mps 763 mmHg 77%
    20:00 +15°C° 0 mm 1 mps 763 mmHg 78%
    21:00 +15°C° 0 mm 1 mps 763 mmHg 79%
    22:00 +14°C° 0 mm 1 mps 763 mmHg 80%
    23:00 +13°C° 0 mm 0 mps 764 mmHg 81%

    23 September, Saturday

    Time Temperature Precipitation Wind Pressure Humidity
    00:00 +13°C° 0 mm 1 mps 763 mmHg 81%
    01:00 +13°C° 0 mm 1 mps 763 mmHg 81%
    02:00 +12°C° 0 mm 1 mps 763 mmHg 82%
    03:00 +12°C° 0 mm 1 mps 763 mmHg 81%
    04:00 +12°C° 0 mm 1 mps 764 mmHg 81%
    05:00 +11°C° 0 mm 1 mps 764 mmHg 81%
    06:00 +13°C° 0 mm 1 mps 764 mmHg 76%
    07:00 +14°C° 0 mm 1 mps 765 mmHg 72%
    08:00 +15°C° 0 mm 1 mps 765 mmHg 67%
    09:00 +17°C° 0 mm 2 mps 765 mmHg 61%
    10:00 +19°C° 0 mm 2 mps 765 mmHg 54%
    11:00 +20°C° 0 mm 2 mps 765 mmHg 47%
    12:00 +21°C° 0 mm 2 mps 764 mmHg 47%
    13:00 +23°C° 0 mm 1 mps 764 mmHg 46%
    14:00 +24°C° 0 mm 1 mps 763 mmHg 46%
    15:00 +23°C° 0 mm 2 mps 763 mmHg 50%
    16:00 +21°C° 0 mm 2 mps 763 mmHg 54%
    17:00 +21°C° 0 mm 2 mps 763 mmHg 58%
    18:00 +19°C° 0 mm 2 mps 763 mmHg 62%
    19:00 +18°C° 0 mm 2 mps 764 mmHg 65%
    20:00 +16°C° 0 mm 2 mps 764 mmHg 69%
    21:00 +16°C° 0 mm 2 mps 764 mmHg 71%
    22:00 +15°C° 0 mm 2 mps 764 mmHg 73%
    23:00 +15°C° 0 mm 2 mps 764 mmHg 74%

    24 September, Sunday

    Time Temperature Precipitation Wind Pressure Humidity
    00:00 +14°C° 0 mm 2 mps 764 mmHg 75%
    01:00 +14°C° 0 mm 1 mps 764 mmHg 77%
    02:00 +14°C° 0 mm 1 mps 764 mmHg 78%
    03:00 +13°C° 0 mm 1 mps 764 mmHg 79%
    04:00 +13°C° 0 mm 1 mps 764 mmHg 80%
    05:00 +13°C° 0 mm 1 mps 764 mmHg 81%
    06:00 +14°C° 0 mm 2 mps 764 mmHg 77%
    07:00 +16°C° 0 mm 2 mps 764 mmHg 73%
    08:00 +17°C° 0 mm 3 mps 765 mmHg 70%
    09:00 +18°C° 0 mm 3 mps 764 mmHg 64%
    10:00 +20°C° 0 mm 3 mps 764 mmHg 58%
    11:00 +21°C° 0 mm 4 mps 763 mmHg 52%
    12:00 +21°C° 0 mm 4 mps 763 mmHg 51%
    13:00 +22°C° 0 mm 3 mps 762 mmHg 50%
    14:00 +24°C° 0 mm 3 mps 762 mmHg 49%
    15:00 +22°C° 0 mm 3 mps 762 mmHg 55%
    16:00 +21°C° 0 mm 3 mps 762 mmHg 60%
    17:00 +20°C° 0 mm 3 mps 762 mmHg 65%
    18:00 +20°C° 0 mm 3 mps 762 mmHg 68%
    19:00 +19°C° 0 mm 3 mps 763 mmHg 72%
    20:00 +18°C° 0 mm 4 mps 763 mmHg 75%
    21:00 +18°C° 0 mm 3 mps 763 mmHg 76%
    22:00 +17°C° 0 mm 3 mps 763 mmHg 76%
    23:00 +17°C° 0 mm 3 mps 763 mmHg 77%

    25 September, Monday

    Time Temperature Precipitation Wind Pressure Humidity
    00:00 +17°C° 0 mm 3 mps 763 mmHg 77%
    01:00 +16°C° 0 mm 3 mps 763 mmHg 78%
    02:00 +16°C° 0 mm 3 mps 763 mmHg 78%
    03:00 +16°C° 0 mm 3 mps 763 mmHg 79%
    04:00 +16°C° 0 mm 3 mps 763 mmHg 79%
    05:00 +14°C° 0 mm 3 mps 763 mmHg 80%
    06:00 +16°C° 0 mm 3 mps 763 mmHg 80%
    07:00 +15°C° 0 mm 4 mps 763 mmHg 80%
    08:00 +17°C° 0 mm 4 mps 763 mmHg 80%
    09:00 +18°C° 0 mm 4 mps 763 mmHg 77%
    10:00 +19°C° 0 mm 4 mps 763 mmHg 75%
    11:00 +20°C° 0 mm 4 mps 762 mmHg 72%
    12:00 +21°C° 0 mm 4 mps 761 mmHg 68%
    13:00 +22°C° 0 mm 4 mps 761 mmHg 65%
    14:00 +23°C° 0 mm 4 mps 760 mmHg 61%
    15:00 +22°C° 0 mm 4 mps 760 mmHg 65%
    16:00 +22°C° 0 mm 4 mps 759 mmHg 69%
    17:00 +21°C° 0 mm 4 mps 759 mmHg 74%
    18:00 +20°C° 0 mm 4 mps 759 mmHg 78%
    19:00 +19°C° 0 mm 4 mps 759 mmHg 82%
    20:00 +18°C° 0 mm 4 mps 759 mmHg 86%
    21:00 +18°C° 0 mm 3 mps 759 mmHg 86%
    22:00 +18°C° 0 mm 3 mps 759 mmHg 87%
    23:00 +18°C° 0 mm 2 mps 758 mmHg 88%
    Show more